Flag for Norway Weather past 2 weeks in Kristiansund, Norway

Now
41 °F

Passing clouds.


Feels Like: 37 °F
Forecast: 34 / 41 °F
Wind: 6 mph from East

Location: Kristiansund / Kvernberget

Current Time: Mar 30, 2015 at 11:39:34 AM

Latest Report: Mar 30, 2015 at 10:50 AM


Visibility: N/A

Pressure: 29.09 "Hg

Humidity: 76%

Dew point: 34 °F

Location of KristiansundLocation

Historic Weather in Kristiansund — Graph

°F

Kristiansund temperature yesterday

Maximum temperature yesterday: 48 °F (at 5:50 AM)
Minimum temperature yesterday: 34 °F (at 11:50 PM)
Average temperature yesterday: 43 °F

Past Weeks' High & Low Weather Summary

 TemperatureHumidityPressure
High52 °F (Mar 17, 1:20 PM)100% (Mar 19, 7:20 PM)30.77 "Hg (Mar 19, 7:20 PM)
Low28 °F (Mar 21, 3:50 AM)28% (Mar 15, 1:50 PM)28.91 "Hg (Mar 29, 1:50 AM)
Average40 °F67%29.96 "Hg
* Reported Mar 15 9:20 AM — Mar 30 10:20 AM, Kristiansund, Weather by CustomWeather, © 2015

Note: Actual official high and low records may vary slightly from our data, if they occured in-between our weather recording intervals... More about our weather records

Advertising

Kristiansund weather history for previous 24 hours

 ConditionsComfort  
Time TempWeatherWind HumidityBarometerVisibility
10:20 AM
Mon, Mar 30
39 °FPassing clouds.5 mph81%29.09 "HgN/A
9:50 AM39 °FPassing clouds.3 mph81%29.09 "HgN/A
9:20 AM37 °FPassing clouds.2 mph87%29.09 "HgN/A
8:50 AM36 °FScattered clouds.3 mph93%29.09 "HgN/A
8:20 AM34 °FPassing clouds.5 mph93%29.09 "HgN/A
7:50 AM34 °FPassing clouds.2 mph93%29.06 "HgN/A
7:20 AM34 °FPassing clouds.2 mph93%29.06 "HgN/A
6:50 AM34 °FPassing clouds.1 mph93%29.03 "HgN/A
6:20 AM34 °FPassing clouds.3 mph93%29.03 "HgN/A
5:50 AM34 °FPassing clouds.3 mph93%29.03 "HgN/A
5:20 AM34 °FOvercast.2 mph93%29.03 "HgN/A
4:50 AM34 °FPartly cloudy.No wind93%29.00 "HgN/A
4:20 AM36 °FLow clouds.2 mph87%29.00 "HgN/A
3:50 AM36 °FPartly cloudy.6 mph81%29.00 "HgN/A
3:20 AM34 °FPassing clouds.3 mph87%29.00 "HgN/A
2:50 AM34 °FPassing clouds.1 mph93%29.00 "HgN/A
2:20 AM34 °FPassing clouds.1 mph93%29.00 "HgN/A
1:50 AM34 °FPassing clouds.2 mph93%29.00 "HgN/A
1:20 AM36 °FPartly cloudy.5 mph93%29.00 "HgN/A
12:50 AM36 °FPassing clouds.7 mph93%29.00 "Hg4 mi
12:20 AM34 °FPassing clouds.1 mph93%29.00 "HgN/A
11:50 PM
Sun, Mar 29
34 °FPartly cloudy.5 mph93%29.00 "HgN/A
11:20 PM36 °FOvercast.7 mph87%29.00 "HgN/A
10:50 PM37 °FPartly cloudy.10 mph81%29.00 "HgN/A
10:20 PM37 °FPassing clouds.7 mph81%29.00 "HgN/A
9:50 PM37 °FPassing clouds.6 mph81%29.00 "HgN/A
9:20 PM36 °FPassing clouds.2 mph87%29.00 "HgN/A
8:50 PM36 °FPassing clouds.1 mph87%29.00 "HgN/A
8:20 PM36 °FSleet. Scattered clouds.14 mph87%29.00 "HgN/A
7:50 PM39 °FScattered clouds.9 mph75%29.00 "HgN/A
7:20 PM39 °FScattered clouds.9 mph75%29.00 "HgN/A
6:50 PM41 °FScattered clouds.9 mph76%29.00 "HgN/A
6:20 PM41 °FScattered clouds.10 mph70%29.00 "HgN/A
5:50 PM41 °FScattered clouds.12 mph70%29.00 "HgN/A
5:20 PM43 °FScattered clouds.15 mph71%29.00 "HgN/A
4:50 PM43 °FScattered clouds.17 mph71%29.00 "HgN/A
4:20 PM43 °FScattered clouds.17 mph71%29.00 "HgN/A
3:50 PM43 °FPartly sunny.17 mph76%29.00 "HgN/A
3:20 PM43 °FScattered showers. Partly sunny.13 mph76%29.00 "HgN/A
2:50 PM41 °FSprinkles. Broken clouds.16 mph81%29.00 "HgN/A
2:20 PM43 °FSprinkles. Partly sunny.18 mph76%29.00 "HgN/A
1:50 PM43 °FScattered showers. Partly sunny.21 mph71%29.00 "HgN/A
1:20 PM46 °FScattered clouds.14 mph62%29.00 "HgN/A
12:50 PM46 °FScattered clouds.15 mph62%29.00 "HgN/A
12:20 PM46 °FScattered clouds.13 mph66%28.97 "HgN/A
11:50 AM45 °FPassing clouds.15 mph66%28.97 "HgN/A
11:20 AM45 °FScattered clouds.10 mph66%28.97 "HgN/A
Weather by CustomWeather, © 2015

See weather overviewHow to use our weather pages